DW5026 Weather Reports


time (UTC)temp
C
wind
direction
speed
KPH
gust
KPH
rain 1hr
cm
rain 24hr
cm
rain mn
cm
humidity
%
barometer
mb
20260508213054 26 293 1.6 8.0 0.00 0.00 0.00 20 1002.2
20260508211552 26 309 1.6 6.4 0.00 0.00 0.00 18 1002.2
20260508210050 25 271 1.6 9.7 0.00 0.00 0.00 20 1002.4
20260508204601 26 293 1.6 8.0 0.00 0.00 0.00 20 1002.7
20260508203049 26 297 1.6 8.0 0.00 0.00 0.00 20 1002.8
20260508201548 25 302 1.6 8.0 0.00 0.00 0.00 20 1003.0
20260508200045 25 275 1.6 9.7 0.00 0.00 0.00 20 1003.0
20260508194541 24 321 1.6 9.7 0.00 0.00 0.00 21 1003.0
20260508193045 24 308 0.0 8.0 0.00 0.00 0.00 23 1003.2
20260508191541 23 293 1.6 8.0 0.00 0.00 0.00 25 1003.5
20260508190045 23 314 4.8 9.7 0.00 0.00 0.00 23 1003.7
20260508184547 23 305 4.8 11.3 0.00 0.00 0.00 23 1003.8
20260508183044 23 295 3.2 9.7 0.00 0.00 0.00 23 1003.7
20260508181557 24 305 1.6 8.0 0.00 0.00 0.00 23 1003.9
20260508180034 23 302 0.0 6.4 0.00 0.00 0.00 24 1003.9
20260508174539 23 300 0.0 6.4 0.00 0.00 0.00 28 1004.1
20260508173031 23 315 3.2 6.4 0.00 0.00 0.00 30 1004.1
20260508171530 23 303 1.6 4.8 0.00 0.00 0.00 29 1004.0
20260508170028 22 309 1.6 4.8 0.00 0.00 0.00 29 1004.0
20260508164524 22 306 0.0 6.4 0.00 0.00 0.00 31 1004.0
20260508163033 21 303 0.0 4.8 0.00 0.00 0.00 33 1003.9
20260508161528 21 310 0.0 6.4 0.00 0.00 0.00 36 1004.0
20260508160018 21 309 0.0 3.2 0.00 0.00 0.00 36 1003.8
20260508154515 20 315 0.0 1.6 0.00 0.00 0.00 36 1003.8
20260508153016 19 305 0.0 1.6 0.00 0.00 0.00 39 1003.8
20260508151509 18 319 0.0 1.6 0.00 0.00 0.00 40 1003.8
20260508150010 18 319 0.0 1.6 0.00 0.00 0.00 39 1003.9
20260508144504 17 313 0.0 0.0 0.00 0.00 0.00 44 1003.8
20260508143001 16 313 0.0 0.0 0.00 0.00 0.00 54 1003.9
20260508141600 13 313 0.0 0.0 0.00 0.00 0.00 66 1004.0
20260508140056 10 313 0.0 0.0 0.00 0.00 0.00 79 1003.9
20260508134559 7 312 0.0 0.0 0.00 0.00 0.00 85 1003.8
20260508133050 7 312 0.0 0.0 0.00 0.00 0.00 84 1003.7
20260508131547 6 312 0.0 0.0 0.00 0.00 0.00 84 1003.5
20260508130046 6 313 0.0 0.0 0.00 0.00 0.00 84 1003.4
20260508124543 6 312 0.0 0.0 0.00 0.00 0.00 83 1003.2
20260508123049 6 313 0.0 0.0 0.00 0.00 0.00 83 1003.0
20260508121542 6 312 0.0 0.0 0.00 0.00 0.00 82 1002.9
20260508120043 7 313 0.0 0.0 0.00 0.00 0.00 82 1002.8
20260508114546 7 312 0.0 0.0 0.00 0.00 0.00 81 1002.7
20260508113040 7 313 0.0 0.0 0.00 0.00 0.00 81 1002.6
20260508111534 7 313 0.0 0.0 0.00 0.00 0.00 80 1002.6
20260508110031 7 312 0.0 0.0 0.00 0.00 0.00 80 1002.6
20260508104528 7 312 0.0 0.0 0.00 0.00 0.00 78 1002.6
20260508103034 7 313 0.0 0.0 0.00 0.00 0.00 79 1002.5
20260508101526 7 313 0.0 0.0 0.00 0.00 0.00 78 1002.6
20260508100025 7 312 0.0 1.6 0.00 0.00 0.00 77 1002.5
20260508094522 7 311 0.0 3.2 0.00 0.00 0.00 77 1002.5
20260508093021 7 309 0.0 0.0 0.00 0.00 0.00 77 1002.1
20260508091519 8 310 0.0 0.0 0.00 0.00 0.00 76 1002.1
20260508090022 8 310 0.0 0.0 0.00 0.00 0.00 76 1002.1
20260508084516 8 309 0.0 0.0 0.00 0.00 0.00 75 1002.2
20260508083013 8 310 0.0 0.0 0.00 0.00 0.00 74 1002.4
20260508081531 8 310 0.0 0.0 0.00 0.00 0.00 74 1002.3
20260508080011 8 309 0.0 0.0 0.00 0.00 0.00 73 1002.3
20260508074508 8 309 0.0 0.0 0.00 0.00 0.00 73 1002.2
20260508073005 9 309 0.0 0.0 0.00 0.00 0.00 72 1002.1
20260508071503 9 309 0.0 0.0 0.00 0.00 0.00 70 1001.9
20260508070104 10 309 0.0 0.0 0.00 0.00 0.00 70 1001.8
20260508064558 10 309 0.0 0.0 0.00 0.00 0.00 69 1001.9
20260508063105 10 309 0.0 0.0 0.00 0.00 0.00 66 1001.9
20260508061556 10 309 0.0 0.0 0.00 0.00 0.00 66 1001.9
20260508060055 11 309 0.0 0.0 0.00 0.00 0.00 65 1001.8
20260508054550 11 310 0.0 0.0 0.00 0.00 0.00 64 1001.7
20260508053049 11 309 0.0 0.0 0.00 0.00 0.00 63 1001.5
20260508051550 12 309 0.0 0.0 0.00 0.00 0.00 63 1001.4
20260508050048 12 309 0.0 0.0 0.00 0.00 0.00 61 1001.5
20260508044547 12 300 0.0 0.0 0.00 0.00 0.00 59 1001.5
20260508043048 13 300 0.0 0.0 0.00 0.00 0.00 59 1001.4
20260508041546 13 300 0.0 0.0 0.00 0.00 0.00 56 1001.2
20260508040052 13 300 0.0 0.0 0.00 0.00 0.00 55 1001.2
20260508034545 14 300 0.0 0.0 0.00 0.00 0.00 54 1000.9
20260508033045 15 300 0.0 0.0 0.00 0.00 0.00 49 1001.0
20260508031544 16 300 0.0 0.0 0.00 0.00 0.00 47 1000.9
20260508030044 17 300 0.0 0.0 0.00 0.00 0.00 42 1000.6
20260508024549 18 300 0.0 0.0 0.00 0.00 0.00 40 1000.6
20260508023043 20 300 0.0 0.0 0.00 0.00 0.00 34 1000.5
20260508021544 23 300 0.0 0.0 0.00 0.00 0.00 28 1000.6
20260508020041 25 300 0.0 0.0 0.00 0.00 0.00 24 1000.5
20260508014543 25 300 0.0 0.0 0.00 0.00 0.00 22 1000.5
20260508013045 25 300 0.0 0.0 0.00 0.00 0.00 21 1000.6
20260508011538 24 300 0.0 4.8 0.00 0.00 0.00 22 1000.6
20260508010037 23 317 0.0 3.2 0.00 0.00 0.00 23 1000.7
20260508004536 22 293 0.0 1.6 0.00 0.00 0.00 25 1000.8
20260508003033 22 290 0.0 1.6 0.00 0.00 0.00 24 1000.9
20260508001533 23 319 0.0 3.2 0.00 0.00 0.00 24 1001.2
20260508000031 23 302 0.0 1.6 0.00 0.00 0.00 23 1001.3
20260507234530 23 328 0.0 3.2 0.00 0.00 0.00 23 1001.5
20260507233039 23 305 0.0 4.8 0.00 0.00 0.00 22 1001.6
20260507231534 24 322 0.0 3.2 0.00 0.00 0.00 22 1001.8
20260507230025 25 305 0.0 6.4 0.00 0.00 0.00 23 1002.2
20260507224521 24 325 0.0 6.4 0.00 0.00 0.00 23 1002.5
20260507223021 24 297 1.6 6.4 0.00 0.00 0.00 24 1002.8
20260507221525 24 306 1.6 8.0 0.00 0.00 0.00 24 1002.9
20260507220020 25 302 0.0 6.4 0.00 0.00 0.00 22 1003.0
20260507214518 25 308 0.0 11.3 0.00 0.00 0.00 23 1003.2